Simultaneous Nadir Overpasses (SNOs) Predictions

Prediction of SNOs between GOES-17 and AQUA Satellite Orbit:

Table of predicted SNOs for the next 14.0 days since TLE Epoch: 7/3/2020
Index Date Time (GOES-17) GOES-17 Lat,Lon AQUA Lat,Lon Distance(km) Time Diff (sec)
1 07/03/2020 22:42:37 -0.02,-137.19 0.16,-136.42 87.85 80
2 07/04/2020 11:03:53 0.02,-137.19 0.93,-141.58 498.59 80
3 07/05/2020 22:30:25 -0.01,-137.18 0.75,-133.45 422.52 80
4 07/06/2020 10:51:41 0.02,-137.18 0.34,-138.61 164.00 80
5 07/08/2020 10:36:50 0.02,-137.16 -0.32,-135.66 170.71 80
6 07/08/2020 22:58:13 -0.03,-137.15 -0.83,-140.84 420.25 80
7 07/10/2020 22:46:02 -0.03,-137.13 -0.17,-137.89 85.93 80
8 07/12/2020 22:36:30 -0.03,-137.11 0.43,-134.93 247.94 80
9 07/13/2020 10:57:46 0.03,-137.11 0.67,-140.09 338.80 80
10 07/15/2020 10:45:35 0.02,-137.08 0.01,-137.14 6.47 80
11 07/17/2020 10:30:43 -0.01,-137.04 -0.60,-134.17 325.47 80
